Date,TemperatureHighF,TemperatureAvgF,TemperatureLowF,DewpointHighF,DewpointAvgF,DewpointLowF,HumidityHigh,HumidityAvg,HumidityLow,PressureMaxIn,PressureMinIn,WindSpeedMaxMPH,WindSpeedAvgMPH,GustSpeedMaxMPH,PrecipitationSumIn
2014-1-1,50.0,35.8,20.3,32.3,26.2,16.6,88,69,47,30.01,29.76,13,2,13,0.00
2014-1-2,20.5,13.5,7.9,16.2,6.9,1.6,86,75,58,30.29,29.97,13,3,13,0.00
2014-1-3,36.0,21.0,5.2,21.3,11.3,0.0,83,67,51,30.29,29.82,9,2,9,0.02
2014-1-4,39.6,33.3,27.2,32.4,26.7,17.8,93,77,66,29.82,29.69,8,2,8,0.02
2014-1-5,34.2,16.2,4.5,32.0,11.3,-4.9,92,81,64,30.27,29.66,15,6,15,0.02
2014-1-6,4.7,-0.9,-7.6,-4.7,-10.9,-16.1,74,62,51,30.40,30.26,11,2,11,0.00
2014-1-7,40.7,18.8,-5.4,21.4,8.1,-11.7,83,65,43,30.28,30.01,8,2,8,0.11
2014-1-8,41.4,30.9,24.8,29.1,22.8,16.4,91,73,50,30.16,30.07,6,1,6,0.02
2014-1-9,35.1,32.1,29.5,31.7,29.8,26.9,93,91,87,30.12,29.90,5,1,5,0.02
2014-1-10,47.9,40.6,33.3,46.5,38.9,31.4,96,93,84,29.90,29.44,9,2,10,0.43
2014-1-11,50.4,38.6,30.8,38.7,32.9,26.3,93,81,61,29.85,29.54,10,2,10,0.00
2014-1-12,67.0,48.6,30.1,34.9,30.9,26.2,87,56,28,29.83,29.50,17,2,17,0.00
2014-1-13,56.7,45.9,34.6,44.6,32.9,24.7,80,61,44,29.78,29.52,10,2,10,0.00
2014-1-14,48.1,39.2,29.3,33.3,23.3,12.7,71,54,33,30.03,29.69,11,2,13,0.00
2014-1-15,36.0,28.1,20.0,19.9,12.4,5.3,69,52,31,30.09,29.78,9,2,9,0.00
2014-1-16,49.0,40.5,30.6,30.3,24.3,15.8,66,53,36,29.85,29.68,14,4,14,0.00
2014-1-17,33.5,25.6,20.3,16.3,7.8,1.4,69,48,27,30.00,29.84,16,4,16,0.00
2014-1-18,51.1,37.6,20.5,29.3,21.3,6.8,72,52,40,29.94,29.65,17,4,17,0.00
2014-1-19,57.6,37.9,19.8,28.5,22.9,14.6,83,58,31,30.00,29.76,11,3,12,0.00
2014-1-20,58.9,46.7,34.7,33.5,28.0,21.3,67,49,29,29.97,29.74,13,3,13,0.00
2014-1-21,34.9,20.7,11.5,20.9,7.7,1.7,72,58,38,30.24,29.96,16,6,16,0.00
2014-1-22,37.3,26.8,16.4,22.1,13.2,4.7,65,56,46,30.16,29.93,17,2,17,0.00
2014-1-23,24.8,12.0,5.2,13.8,-2.6,-5.8,64,52,39,30.56,30.16,17,4,17,0.00
2014-1-24,37.6,20.9,2.5,11.1,1.4,-5.8,73,46,22,30.51,29.76,17,4,17,0.00
2014-1-25,52.9,40.6,29.9,35.1,25.7,10.8,83,56,36,29.85,29.70,17,4,17,0.00
2014-1-26,63.5,45.3,30.2,36.5,29.8,6.3,83,58,30,29.86,29.52,20,3,20,0.00
2014-1-27,33.5,17.8,13.1,17.3,-1.6,-8.1,55,42,30,30.27,29.86,19,6,19,0.00
2014-1-28,23.9,15.2,9.7,1.3,-2.7,-5.7,64,45,32,30.31,30.17,8,2,8,0.00
2014-1-29,42.3,24.8,8.6,18.0,8.5,-0.1,82,53,29,30.17,29.89,10,2,10,0.00
2014-1-30,49.0,35.7,24.3,24.4,17.5,10.8,74,49,33,29.91,29.65,13,3,13,0.00
2014-1-31,37.8,35.3,30.6,35.6,30.7,22.1,93,84,70,29.81,29.67,6,2,8,0.03
2014-2-1,44.1,33.7,26.1,42.0,31.7,23.6,94,92,89,29.97,29.60,13,3,13,0.08
2014-2-2,26.1,22.7,16.4,23.6,18.7,12.9,90,85,75,30.15,29.96,12,4,12,0.00
2014-2-3,41.0,25.1,11.0,22.6,15.5,7.6,87,69,45,30.17,30.01,6,1,6,0.01
2014-2-4,29.9,28.0,25.6,26.0,22.2,16.4,91,79,58,30.01,29.73,7,1,12,0.00
2014-2-5,26.3,14.7,6.5,23.5,8.8,0.0,89,77,66,30.40,29.82,13,4,13,0.00
2014-2-6,18.5,8.9,3.6,4.1,-0.6,-3.9,75,65,50,30.42,30.24,9,3,9,0.00
2014-2-7,24.7,15.1,2.9,13.0,6.1,-4.0,78,68,55,30.24,30.04,1,0,1,0.00
2014-2-8,34.0,25.6,19.1,26.6,20.5,12.8,87,81,73,30.05,29.88,0,0,0,0.01
2014-2-9,32.6,28.2,21.6,26.7,23.6,16.7,91,83,75,30.12,29.95,0,0,0,0.00
2014-2-10,27.5,20.5,15.1,16.7,11.8,6.7,85,70,50,30.24,30.12,0,0,0,0.02
2014-2-11,36.7,20.8,10.4,12.4,6.0,1.9,69,54,32,30.27,30.06,0,0,0,0.00
2014-2-12,43.2,27.2,12.2,24.3,14.2,3.5,78,59,39,30.07,29.82,0,0,0,0.00
2014-2-13,53.6,36.3,20.2,41.5,26.4,15.7,86,69,48,29.83,29.65,0,0,0,0.35
2014-2-14,37.8,29.5,23.4,27.6,22.7,17.6,79,76,66,30.12,29.93,12,4,12,0.00
2014-2-15,51.7,32.0,19.1,33.5,22.4,13.6,85,70,43,30.11,29.88,8,1,8,0.00
2014-2-16,57.2,43.1,30.4,35.1,30.9,24.8,82,63,39,30.15,29.96,7,1,7,0.00
2014-2-17,58.3,45.8,38.2,41.1,31.5,25.4,77,59,33,30.11,29.84,14,3,14,0.00
2014-2-18,70.2,50.1,34.2,36.3,30.4,25.0,70,49,26,30.09,29.79,12,2,12,0.00
2014-2-19,63.9,51.3,35.8,43.1,32.3,25.9,77,51,25,30.04,29.67,10,2,10,0.00
2014-2-20,71.8,51.9,37.4,58.5,42.4,23.0,90,71,44,29.89,29.44,21,5,21,0.16
2014-2-21,60.1,45.5,30.6,26.9,21.1,14.6,67,41,18,30.02,29.89,13,3,13,0.00
2014-2-22,70.2,50.7,36.2,35.1,27.1,18.0,59,41,26,29.98,29.81,11,2,11,0.00
2014-2-23,49.5,39.5,29.9,32.2,24.1,15.2,84,56,33,30.26,29.91,13,4,15,0.00
2014-2-24,50.4,37.3,23.8,21.5,17.3,12.9,70,46,30,30.31,30.08,8,1,8,0.00
2014-2-25,40.7,32.7,22.1,21.7,18.0,11.6,69,55,43,30.29,30.14,16,4,16,0.00
2014-2-26,32.9,22.2,14.8,12.2,7.1,2.4,77,54,28,30.32,30.03,15,4,15,0.00
2014-2-27,48.2,32.2,20.7,18.0,12.2,5.8,65,45,25,30.10,29.92,8,1,8,0.00
2014-2-28,45.0,36.1,27.2,33.1,25.2,14.1,79,65,45,30.00,29.85,9,2,9,0.01
2014-3-1,52.7,40.3,28.4,41.1,32.2,22.8,89,73,59,30.13,29.99,13,2,13,0.00
2014-3-2,28.3,14.9,5.8,23.1,10.5,0.2,88,82,77,30.32,30.10,17,7,17,0.00
2014-3-3,27.2,14.1,2.7,7.5,2.1,-4.6,83,60,35,30.44,30.26,12,3,12,0.16
2014-3-4,46.4,28.6,11.3,20.1,12.4,3.0,75,52,33,30.26,30.04,6,1,6,0.04
2014-3-5,51.5,37.4,23.6,28.5,21.6,14.9,74,54,31,30.17,30.05,7,1,7,0.00
2014-3-6,56.3,39.7,26.3,31.1,24.4,19.7,78,56,31,30.21,30.02,5,1,7,0.00
2014-3-7,63.2,46.9,29.7,35.9,29.9,20.5,71,54,33,30.02,29.86,8,1,8,0.00
2014-3-8,43.0,35.9,33.8,33.8,31.8,28.4,92,86,65,30.28,29.97,10,2,10,0.50
2014-3-9,61.0,41.9,32.0,44.7,35.5,29.3,91,79,52,30.31,30.08,7,1,7,0.00
2014-3-10,75.6,55.0,36.7,43.9,37.7,33.8,93,59,25,30.09,29.79,13,3,13,0.01
2014-3-11,79.6,63.2,47.2,56.6,47.7,33.3,82,58,42,29.79,29.48,15,2,15,0.00
2014-3-12,53.3,42.4,34.6,41.1,28.5,22.8,87,60,34,30.15,29.69,16,6,19,0.01
2014-3-13,68.0,50.5,31.5,34.7,26.8,22.5,75,44,21,30.15,29.97,12,2,12,0.00
2014-3-14,68.0,55.0,43.6,37.3,32.1,25.2,56,43,30,30.02,29.90,12,2,12,0.00
2014-3-15,69.8,54.0,34.7,50.6,40.4,26.8,78,61,39,30.02,29.82,7,1,7,0.00
2014-3-16,56.5,37.3,26.6,51.2,33.5,21.2,91,86,78,30.08,29.72,27,7,27,0.80
2014-3-17,51.5,34.6,18.4,32.8,23.7,14.2,87,67,32,30.08,29.71,10,1,10,0.11
2014-3-18,70.0,52.4,37.3,45.2,38.7,32.3,90,63,39,29.72,29.49,11,3,12,0.00
2014-3-19,57.4,44.6,37.1,39.6,33.2,27.6,79,65,41,30.16,29.69,12,4,12,0.00
2014-3-20,70.6,50.6,31.3,37.5,28.6,23.5,84,49,21,30.15,29.94,12,2,12,0.00
2014-3-21,75.1,57.6,42.3,48.7,36.2,25.0,58,45,33,30.02,29.81,15,2,15,0.00
2014-3-22,57.2,46.8,36.0,35.5,29.2,20.2,76,52,34,30.25,30.01,13,4,13,0.00
2014-3-23,52.2,38.6,29.2,22.7,19.2,14.0,66,46,29,30.41,30.24,14,4,14,0.00
2014-3-24,52.7,38.1,28.6,34.0,24.1,15.1,89,59,37,30.26,30.09,8,2,8,0.02
2014-3-25,44.5,35.2,28.4,30.5,22.6,14.9,90,63,35,30.34,30.18,14,3,14,0.01
2014-3-26,56.0,39.9,25.4,39.0,25.2,15.5,85,59,31,30.25,29.88,13,2,13,0.08
2014-3-27,70.2,55.5,42.7,56.6,46.9,36.8,89,73,60,29.88,29.57,21,4,21,0.26
2014-3-28,56.5,46.0,35.5,43.4,38.3,31.1,86,75,60,30.07,29.82,12,2,12,0.00
2014-3-29,59.2,44.8,34.6,38.3,34.8,29.9,92,70,43,30.26,30.06,11,2,11,0.02
2014-3-30,73.4,53.6,32.0,44.0,36.6,27.3,86,57,31,30.24,29.96,8,2,8,0.00
2014-3-31,67.7,57.0,50.6,51.4,44.9,40.1,82,65,49,29.97,29.77,11,2,11,0.00
2014-4-1,65.3,51.6,39.6,49.1,36.4,28.5,89,57,38,30.09,29.90,8,2,8,0.00
2014-4-2,78.1,65.1,49.3,65.3,58.0,39.9,90,78,63,29.93,29.74,7,2,7,0.00
2014-4-3,82.8,66.6,50.8,67.6,58.4,45.1,88,75,53,29.77,29.59,17,3,17,0.23
2014-4-4,51.5,43.6,35.3,45.5,33.9,27.5,82,69,51,30.15,29.74,15,4,15,0.00
2014-4-5,64.8,45.7,28.4,38.4,30.4,24.1,87,59,30,30.20,30.03,6,1,6,0.00
2014-4-6,60.1,50.8,42.7,43.1,37.5,32.7,82,61,43,30.08,29.80,8,1,8,0.02
2014-4-7,66.1,51.8,43.4,47.4,41.3,36.5,92,70,36,29.84,29.73,10,2,10,0.29
2014-4-8,61.2,52.2,43.6,44.4,39.2,32.3,78,62,39,30.10,29.82,18,3,18,0.02
2014-4-9,76.7,55.4,34.0,41.7,35.0,27.3,79,50,26,30.17,29.93,9,2,9,0.00
2014-4-10,83.2,67.5,50.9,54.0,46.6,37.1,67,49,32,29.96,29.81,15,3,15,0.00
2014-4-11,81.9,65.0,50.0,57.6,49.9,41.8,76,59,42,30.07,29.93,5,1,5,0.00
2014-4-12,82.3,70.8,59.6,63.4,57.6,53.4,83,64,49,29.97,29.71,10,2,10,0.00
2014-4-13,72.4,65.6,55.4,62.2,58.3,52.4,91,78,67,29.75,29.52,12,2,12,0.26
2014-4-14,56.3,38.5,32.0,53.7,33.9,24.4,93,84,67,30.14,29.64,13,4,13,0.02
2014-4-15,58.1,41.6,26.6,31.3,26.2,22.0,84,57,31,30.22,30.08,9,1,9,0.01
2014-4-16,65.9,50.9,38.3,38.4,32.4,26.2,77,51,30,30.11,29.95,10,2,10,0.00
2014-4-17,66.8,53.4,39.6,44.2,38.4,29.8,72,58,41,30.23,30.06,8,1,8,0.00
2014-4-18,77.8,60.0,42.8,49.0,42.8,37.0,82,56,33,30.27,30.13,6,1,6,0.00
2014-4-19,81.4,64.9,48.2,53.2,47.2,39.9,77,55,34,30.23,30.09,7,1,7,0.00
2014-4-20,80.8,68.2,54.5,56.3,51.6,45.3,76,57,40,30.17,30.03,8,1,8,0.00
2014-4-21,68.4,63.2,59.2,62.2,57.7,50.7,91,82,67,30.04,29.94,6,1,6,0.28
2014-4-22,75.8,61.7,51.7,57.1,46.4,38.8,92,61,32,30.08,29.96,8,2,8,0.01
2014-4-23,80.5,64.2,47.5,51.1,43.9,37.3,70,50,31,30.03,29.82,6,1,6,0.00
2014-4-24,78.5,63.1,52.9,63.1,51.8,44.4,90,68,51,29.86,29.61,12,2,12,0.08
2014-4-25,81.4,62.8,43.9,53.1,44.1,39.2,86,55,24,30.01,29.86,6,1,6,0.00
2014-4-26,84.6,66.1,51.3,57.7,48.6,38.5,72,55,33,29.92,29.67,6,1,6,0.00
2014-4-27,78.5,66.7,63.7,66.7,62.2,55.3,92,86,60,29.67,29.43,9,2,9,0.58
2014-4-28,69.1,61.8,55.3,61.1,49.8,41.4,93,67,41,29.58,29.40,13,3,13,0.02
2014-4-29,55.3,50.1,44.6,43.5,40.8,38.1,88,71,57,29.83,29.54,13,4,13,0.00
2014-4-30,55.8,48.2,43.6,41.6,38.6,33.6,89,71,49,30.00,29.83,9,2,9,0.00
2014-5-1,58.7,49.5,37.8,41.6,36.4,29.6,75,61,50,30.02,29.96,10,2,10,0.00
2014-5-2,68.8,53.5,37.3,47.6,38.3,32.1,84,59,38,30.01,29.89,9,1,9,0.00
2014-5-3,84.6,65.5,45.2,48.2,41.3,35.7,73,45,22,29.96,29.89,12,2,12,0.00
2014-5-4,93.4,75.3,55.1,55.4,48.0,43.5,69,42,19,29.93,29.80,11,2,11,0.00
2014-5-5,94.3,77.2,66.6,59.4,52.5,45.9,56,43,27,29.82,29.69,11,1,11,0.00
2014-5-6,90.2,72.0,60.8,68.5,58.0,52.6,79,62,46,29.77,29.65,9,1,9,0.00
2014-5-7,90.5,77.6,65.2,69.2,63.4,58.5,81,63,48,29.82,29.71,8,1,8,0.00
2014-5-8,78.5,68.7,64.3,68.1,63.5,60.9,91,84,68,29.90,29.77,6,1,6,0.69
2014-5-9,79.6,66.5,58.3,65.3,60.4,55.4,93,81,59,29.92,29.79,6,1,6,0.17
2014-5-10,88.7,71.2,56.5,69.7,61.9,53.0,92,74,49,29.93,29.78,7,1,7,0.00
2014-5-11,86.9,75.8,66.4,71.7,67.2,62.9,91,76,56,29.87,29.75,7,1,7,0.00
2014-5-12,87.5,72.8,55.6,72.6,65.9,53.3,92,80,57,29.99,29.77,12,2,12,0.88
2014-5-13,55.8,52.0,48.8,53.5,48.6,46.4,93,88,82,30.21,29.98,9,1,9,0.02
2014-5-14,50.4,48.0,44.3,46.7,44.4,41.0,91,87,82,30.21,30.11,7,1,7,0.30
2014-5-15,64.3,51.9,40.5,49.5,39.9,30.4,90,67,33,30.13,30.07,9,1,9,0.00
2014-5-16,63.0,50.4,37.4,42.4,37.5,31.9,82,63,38,30.13,30.03,7,1,7,0.04
2014-5-17,65.3,55.3,45.7,48.3,44.0,40.6,88,68,46,30.16,30.09,7,1,7,0.04
2014-5-18,75.2,60.7,47.5,56.6,50.6,43.3,90,71,50,30.20,30.05,7,1,7,0.00
2014-5-19,83.2,69.3,58.0,66.5,57.7,53.0,87,69,41,30.06,29.84,7,1,7,0.00
2014-5-20,88.7,74.2,60.8,68.4,61.6,56.0,86,66,45,29.94,29.86,11,1,11,0.00
2014-5-21,88.6,74.9,65.0,73.0,65.6,60.2,86,74,60,30.06,29.92,7,1,7,0.00
2014-5-22,90.0,75.0,64.1,71.1,64.8,60.0,88,72,50,30.13,30.02,5,1,5,0.00
2014-5-23,82.3,72.2,63.5,69.4,64.6,59.7,88,77,61,30.12,30.04,6,1,6,0.00
2014-5-24,81.9,70.7,66.6,69.7,64.7,62.3,91,82,62,30.10,30.00,5,1,5,0.15
2014-5-25,88.2,73.4,62.8,70.2,64.9,59.8,91,76,54,30.07,29.96,6,1,6,0.02
2014-5-26,83.5,71.2,65.3,72.2,65.7,62.2,91,83,62,30.07,29.99,6,1,6,0.25
2014-5-27,77.0,67.7,63.5,70.6,64.4,60.9,93,89,74,30.03,29.92,8,0,8,0.96
2014-5-28,79.6,69.2,63.0,70.6,65.3,60.8,93,88,68,29.99,29.91,5,0,5,0.25
2014-5-29,80.3,70.9,63.4,70.9,65.7,61.0,93,84,65,29.98,29.91,6,1,6,0.10
2014-5-30,81.9,71.9,65.5,71.6,66.1,62.6,92,83,64,30.02,29.96,11,1,11,0.02
2014-5-31,85.7,74.6,67.0,73.5,67.9,63.5,91,80,63,30.06,29.96,5,1,5,0.00
2014-6-1,81.7,74.4,67.5,71.9,68.3,64.6,91,82,69,30.02,29.87,6,1,6,0.00
2014-6-2,83.9,74.4,65.5,72.7,67.8,62.4,92,81,64,30.02,29.93,5,1,5,0.26
2014-6-3,88.2,77.9,68.6,75.9,70.5,65.5,91,79,61,30.04,29.82,6,1,6,0.00
2014-6-4,87.1,78.3,68.2,76.4,71.6,64.5,89,80,67,29.90,29.75,15,1,15,0.59
2014-6-5,80.8,70.3,64.1,73.0,66.7,61.7,94,89,75,30.01,29.75,9,1,9,1.32
2014-6-6,75.6,69.9,65.9,71.2,66.7,63.2,93,90,84,29.97,29.85,5,1,5,0.75
2014-6-7,81.0,72.5,65.2,69.8,66.0,62.2,93,81,63,29.95,29.78,9,2,9,0.26
2014-6-8,70.9,65.9,61.6,63.9,61.3,58.1,90,85,74,30.04,29.92,4,0,4,0.13
2014-6-9,70.2,65.5,62.5,67.1,62.5,58.8,93,90,86,29.93,29.67,6,1,6,0.38
2014-6-10,76.1,66.4,60.5,66.1,62.0,58.1,93,86,68,29.78,29.66,6,1,6,0.02
2014-6-11,78.5,68.4,62.6,67.2,62.1,59.3,91,81,65,29.85,29.77,7,1,7,0.01
2014-6-12,74.2,66.9,62.3,67.0,62.7,58.7,91,86,75,29.98,29.82,7,1,7,0.16
2014-6-13,78.5,68.4,59.0,62.0,57.3,53.6,92,70,45,30.07,29.96,8,1,8,0.00
2014-6-14,81.9,70.7,57.8,68.7,61.2,52.6,85,73,60,30.01,29.84,7,1,7,0.00
2014-6-15,80.6,71.4,64.1,70.9,65.8,61.5,92,83,69,30.00,29.79,9,1,9,0.34
2014-6-16,88.9,79.3,70.2,75.6,70.8,67.1,90,76,59,30.05,29.90,6,1,6,0.00
2014-6-17,88.2,79.9,72.4,75.0,71.3,67.4,87,76,61,30.00,29.91,10,1,10,0.00
2014-6-18,89.3,80.3,71.6,75.1,71.0,67.2,87,74,58,29.99,29.93,7,1,7,0.00
2014-6-19,86.9,79.6,71.6,73.8,69.9,66.1,86,73,60,30.06,29.97,9,2,9,0.00
2014-6-20,89.3,78.9,69.8,75.9,70.7,65.4,88,77,60,30.08,29.99,7,1,7,0.00
2014-6-21,88.9,78.3,69.8,74.8,69.4,65.4,88,75,55,30.03,29.90,7,1,7,0.00
2014-6-22,88.9,78.4,68.8,74.5,69.4,64.1,89,75,55,29.95,29.81,5,1,5,0.00
2014-6-23,78.7,72.6,69.7,70.7,67.7,64.9,91,85,75,29.92,29.83,5,0,5,1.24
2014-6-24,83.7,74.2,66.8,71.3,65.9,62.1,92,77,51,30.02,29.91,7,1,7,0.01
2014-6-25,81.0,71.3,66.2,72.5,65.9,61.1,90,83,73,30.11,29.99,3,0,4,0.36
2014-6-26,85.9,74.9,65.2,75.1,68.3,61.8,91,80,64,30.03,29.89,5,1,5,0.00
2014-6-27,84.6,76.5,68.9,74.8,69.9,65.5,90,80,67,29.95,29.89,5,1,5,0.00
2014-6-28,82.4,74.2,67.9,75.0,69.1,64.4,89,84,75,29.98,29.90,6,1,6,0.14
2014-6-29,88.9,78.1,67.7,79.9,72.9,64.3,92,85,70,30.01,29.88,6,1,6,0.27
2014-6-30,91.3,81.6,72.5,79.7,72.6,67.8,89,75,52,29.95,29.79,9,1,9,0.01
2014-7-1,84.6,79.2,72.7,75.3,69.5,63.5,81,73,56,29.99,29.84,6,1,6,0.00
2014-7-2,79.0,72.4,62.8,65.1,60.0,53.3,80,66,49,30.15,29.99,8,1,8,0.00
2014-7-3,80.5,67.8,55.4,62.7,56.5,50.0,85,68,51,30.21,30.14,8,1,8,0.00
2014-7-4,83.0,71.7,58.3,66.2,60.6,53.2,84,69,52,30.27,30.18,6,0,6,0.00
2014-7-5,84.1,74.5,65.5,71.9,65.4,59.2,81,73,63,30.22,30.05,6,1,6,0.00
2014-7-6,81.0,72.6,68.0,74.5,67.9,63.7,91,85,80,30.10,29.91,4,0,4,0.22
2014-7-7,90.4,80.6,70.7,76.2,71.4,67.0,89,75,57,29.94,29.80,8,2,8,0.00
2014-7-8,82.4,73.8,66.6,73.3,67.4,63.1,91,81,66,30.02,29.87,14,1,14,0.53
2014-7-9,83.7,73.8,63.7,68.7,63.2,59.9,90,71,51,30.07,30.00,4,0,4,0.00
2014-7-10,80.1,71.5,63.9,70.9,64.7,58.6,85,79,71,30.11,30.01,6,1,6,0.00
2014-7-11,89.5,78.3,67.3,77.6,70.3,63.5,89,77,59,30.13,30.06,7,1,7,0.00
2014-7-12,90.7,81.2,71.6,73.8,70.9,67.2,88,72,55,30.14,30.02,8,1,8,0.00
2014-7-13,91.6,81.0,71.1,75.8,71.0,65.5,85,73,52,30.07,29.92,9,1,9,0.18
2014-7-14,85.0,75.5,66.2,74.7,68.4,57.1,91,79,59,30.04,29.93,8,1,8,0.10
2014-7-15,75.8,67.0,57.8,58.4,55.4,52.7,83,67,51,30.11,30.01,7,1,7,0.00
2014-7-16,74.9,66.1,55.4,60.2,55.3,50.6,86,69,55,30.09,30.00,0,0,0,0.00
2014-7-17,77.8,67.6,59.0,63.2,58.0,53.3,82,72,57,30.08,30.02,5,0,5,0.00
2014-7-18,78.5,69.5,61.0,64.0,60.2,56.2,86,73,57,30.10,30.00,5,1,5,0.00
2014-7-19,82.1,70.7,58.5,65.6,60.9,54.0,87,72,54,30.06,29.98,6,0,6,0.00
2014-7-20,83.5,72.9,62.1,69.4,63.9,57.5,88,74,58,30.07,29.97,6,0,6,0.00
2014-7-21,89.5,76.9,64.8,74.0,67.3,60.2,88,73,54,30.09,30.00,6,1,6,0.00
2014-7-22,92.2,80.8,69.1,79.1,72.6,64.3,86,77,64,30.10,30.01,5,1,5,0.00
2014-7-23,90.4,81.7,73.3,80.2,74.2,67.8,89,79,55,30.07,30.00,6,1,6,0.00
2014-7-24,84.8,76.2,68.6,68.0,64.1,59.5,84,67,47,30.12,30.00,6,1,6,0.00
2014-7-25,92.5,78.3,65.3,74.9,67.3,58.4,83,70,52,30.02,29.87,8,1,10,0.00
2014-7-26,95.4,83.5,73.3,75.2,71.7,68.5,87,69,47,29.96,29.88,9,2,9,0.00
2014-7-27,92.2,82.0,73.1,76.3,69.2,59.9,79,66,42,30.07,29.91,6,1,6,0.00
2014-7-28,83.2,73.9,63.7,64.0,60.2,56.5,79,63,48,30.17,30.07,7,1,7,0.00
2014-7-29,82.8,72.2,59.9,62.5,59.1,54.2,84,65,46,30.17,30.05,5,0,6,0.00
2014-7-30,72.2,69.4,66.8,66.3,63.0,59.9,88,80,70,30.10,30.05,5,0,5,0.13
2014-7-31,79.7,71.9,66.1,69.3,65.4,61.9,90,81,66,30.08,30.02,5,0,5,0.13
2014-8-1,85.0,71.7,63.5,77.7,64.0,58.0,90,78,52,30.10,30.01,5,1,5,0.13
2014-8-2,87.5,76.7,65.0,77.9,64.3,58.0,86,67,46,30.13,30.05,6,0,6,0.13
2014-8-3,86.4,75.3,66.2,78.2,65.9,58.0,86,73,53,30.16,30.05,8,0,8,0.13
2014-8-4,89.1,76.9,65.9,79.5,66.5,59.6,86,72,51,30.13,30.01,6,1,6,0.13
2014-8-5,92.9,80.5,69.7,78.4,67.7,58.0,81,66,47,30.09,30.01,5,1,5,0.13
2014-8-6,93.2,81.0,69.7,82.3,69.4,60.0,87,69,49,30.07,29.91,6,1,6,0.13
2014-8-7,88.2,76.4,68.0,74.3,69.7,61.9,91,81,61,30.07,29.84,8,1,8,0.13
2014-8-8,85.1,77.5,69.7,73.8,71.0,62.5,92,81,67,30.07,29.88,7,0,7,0.13
2014-8-9,86.6,77.1,69.1,75.2,70.5,61.5,88,81,67,30.07,29.94,5,0,5,0.13
2014-8-10,80.3,78.0,69.6,70.8,68.5,60.4,73,73,72,30.07,29.95,1,0,5,0.13
2014-8-12,82.4,71.6,65.2,59.6,56.8,55.5,72,60,43,30.06,30.01,4,0,4,0.00
2014-8-13,85.0,71.1,57.6,64.5,58.5,52.5,85,66,46,30.13,30.03,6,0,6,0.00
2014-8-14,88.6,74.5,60.8,67.5,61.5,55.7,85,66,41,30.09,29.97,5,0,5,0.00
2014-8-15,90.7,77.2,65.2,79.9,66.0,59.9,85,70,52,30.07,29.90,6,1,6,0.13
2014-8-16,90.4,78.9,69.6,82.6,69.4,60.8,85,73,59,29.92,29.82,7,1,7,0.13
2014-8-17,88.9,78.9,69.7,81.4,69.9,60.0,87,75,58,30.07,29.87,6,1,6,0.13
2014-8-18,91.4,79.0,67.3,82.1,68.8,61.5,88,72,46,29.94,29.81,6,1,6,0.13
2014-8-19,95.4,81.5,69.7,81.4,68.6,60.4,85,67,42,29.89,29.81,6,1,6,0.13
2014-8-20,93.8,82.6,69.7,82.6,69.1,61.1,85,65,45,30.07,29.88,10,2,10,0.13
2014-8-21,97.4,83.9,69.7,83.8,69.7,62.3,85,64,42,30.07,29.93,9,2,9,0.13
2014-8-22,99.0,85.4,69.7,83.4,71.0,61.9,85,64,40,30.07,29.92,8,1,8,0.13
2014-8-23,99.5,86.0,69.6,82.3,68.5,62.6,85,59,33,30.07,29.88,7,1,7,0.13
2014-8-24,99.9,84.8,69.8,82.0,65.8,59.4,84,56,27,30.07,29.89,7,1,7,1.70
2014-8-25,99.4,85.7,71.6,74.3,67.6,63.5,79,57,35,30.03,29.93,6,1,6,0.00
2014-8-26,98.6,84.1,74.0,76.2,69.7,66.2,82,64,38,30.11,30.00,5,1,10,0.00
2014-8-27,95.0,81.6,71.3,75.2,69.3,65.2,83,68,45,30.11,29.99,8,1,8,0.00
2014-8-28,95.4,82.5,72.7,73.6,67.1,61.3,85,62,36,30.03,29.89,6,1,6,0.00
2014-8-29,88.6,78.1,70.2,74.0,66.4,61.4,81,68,52,29.94,29.85,9,1,9,0.04
2014-8-30,90.2,75.3,68.4,75.7,68.0,64.5,88,79,56,29.97,29.87,9,1,9,0.58
2014-8-31,92.3,78.6,68.2,75.2,69.1,64.5,91,75,49,29.99,29.83,7,1,7,0.00
2014-9-1,85.7,75.0,63.5,74.1,68.5,60.0,91,81,67,30.02,29.81,16,1,16,0.80
2014-9-2,79.4,70.5,66.1,71.2,65.9,63.4,91,86,73,30.04,29.89,14,1,14,0.58
2014-9-3,90.5,77.4,67.5,75.2,69.2,64.4,91,77,53,30.05,29.90,8,1,8,0.03
2014-9-4,92.3,82.0,72.9,75.8,72.1,69.1,89,73,53,30.04,29.95,11,2,11,0.00
2014-9-5,92.0,81.3,71.5,74.5,70.6,65.0,87,71,52,30.10,29.98,8,2,8,0.00
2014-9-6,71.5,65.9,60.5,65.4,60.0,55.2,90,81,71,30.19,30.08,8,1,8,0.11
2014-9-7,81.4,68.3,55.4,63.0,57.5,51.3,89,70,50,30.16,30.02,4,1,5,0.00
2014-9-8,85.9,73.3,63.0,71.2,63.4,54.8,82,71,58,30.07,29.94,6,1,6,0.00
2014-9-9,90.0,79.0,68.6,75.6,69.7,63.7,87,74,59,29.98,29.76,9,1,9,0.00
2014-9-10,86.6,78.8,71.3,74.4,70.9,65.7,86,77,64,29.92,29.71,9,2,9,0.05
2014-9-11,71.1,64.1,57.2,65.8,58.7,52.1,89,83,75,30.17,29.92,8,2,8,0.00
2014-9-12,60.7,55.6,51.8,53.6,50.7,46.7,88,84,76,30.30,30.13,8,2,8,0.00
2014-9-13,66.8,55.8,45.7,48.8,45.5,41.2,88,70,47,30.33,30.19,8,2,8,0.00
2014-9-14,76.9,63.1,49.5,58.4,51.9,44.5,85,68,51,30.26,30.11,6,0,6,0.00
2014-9-15,83.5,71.2,61.9,70.0,63.3,54.9,89,77,62,30.14,30.04,10,2,10,0.04
2014-9-16,74.2,67.5,63.7,65.2,60.6,57.1,86,79,71,30.16,30.02,5,1,7,0.00
2014-9-17,67.5,65.1,63.5,64.9,62.2,60.8,92,90,86,30.03,29.86,9,0,9,3.17
2014-9-18,73.8,66.8,62.8,67.7,62.9,59.2,92,87,78,30.02,29.89,5,1,5,0.07
2014-9-19,79.2,69.2,59.6,69.9,63.6,57.0,91,83,69,30.05,29.96,5,0,5,0.00
2014-9-20,84.6,73.6,64.1,72.9,67.1,61.0,91,81,64,30.06,29.93,7,1,7,0.00
2014-9-21,77.4,71.0,59.0,66.8,58.4,49.8,90,67,40,30.18,29.99,7,1,7,0.03
2014-9-22,74.3,62.7,51.3,56.5,51.7,46.6,86,69,49,30.27,30.17,7,0,7,0.00
2014-9-23,75.6,63.3,51.8,57.3,51.1,46.6,85,66,45,30.26,30.13,5,1,5,0.00
2014-9-24,77.6,64.5,50.2,57.6,50.9,44.7,83,63,39,30.23,30.14,4,0,4,0.00
2014-9-25,80.3,68.2,56.7,63.6,56.8,50.2,83,68,50,30.24,30.13,5,0,5,0.00
2014-9-26,82.3,70.6,60.8,66.4,59.7,55.4,84,70,51,30.19,30.09,5,0,5,0.00
2014-9-27,82.3,70.0,57.4,67.0,58.9,52.9,87,70,49,30.15,30.04,5,0,5,0.00
2014-9-28,83.2,70.8,59.4,69.5,61.6,54.9,87,74,54,30.12,30.02,5,0,5,0.00
2014-9-29,83.3,71.0,60.1,67.6,60.9,56.0,87,72,48,30.07,29.94,5,0,5,0.00
2014-9-30,83.7,70.3,58.9,68.0,59.7,54.9,87,71,47,29.95,29.83,4,1,5,0.00
2014-10-1,87.5,74.6,63.5,71.8,64.1,56.0,80,70,54,29.85,29.74,8,1,8,0.00
2014-10-2,74.2,68.9,61.2,70.0,65.1,58.0,91,88,79,29.89,29.67,10,1,10,0.73
2014-10-3,61.2,53.7,45.0,58.3,47.2,37.9,90,79,59,30.10,29.78,13,2,13,0.00
2014-10-4,61.2,50.2,41.4,39.2,36.8,32.7,78,62,40,30.08,29.89,11,2,11,0.00
2014-10-5,75.6,61.0,46.6,52.4,47.2,38.1,78,62,41,29.89,29.75,8,1,8,0.00
2014-10-6,73.3,64.1,53.5,55.1,51.4,46.6,80,64,44,29.84,29.75,8,1,8,0.00
2014-10-7,81.9,70.7,60.8,66.2,59.8,53.6,86,70,47,29.99,29.73,10,2,10,0.00
2014-10-8,79.9,66.5,56.0,63.0,57.4,51.0,85,74,48,30.08,29.98,5,0,5,0.00
2014-10-9,81.9,67.6,63.0,71.1,62.4,57.8,90,84,66,29.99,29.89,10,1,10,0.62
2014-10-10,63.5,58.3,50.9,60.7,55.7,48.1,92,91,90,30.04,29.85,8,2,8,1.81
2014-10-11,54.0,51.2,48.2,49.7,47.0,43.3,90,86,80,30.10,29.99,9,1,9,0.05
2014-10-12,65.7,57.1,52.0,60.6,53.9,49.1,92,89,82,29.99,29.71,4,0,4,0.00
2014-10-13,66.8,61.9,53.3,62.5,58.5,49.8,91,89,77,29.72,29.45,11,2,11,1.26
2014-10-14,63.0,56.2,51.8,50.6,47.3,42.7,92,74,51,29.87,29.60,9,3,9,0.04
2014-10-15,66.4,55.0,45.9,45.9,42.0,39.3,80,63,38,29.97,29.86,8,1,8,0.00
2014-10-16,77.0,61.4,41.6,59.0,50.0,37.1,86,68,48,29.92,29.75,5,0,5,0.00
2014-10-17,70.6,59.8,50.8,53.6,50.0,45.9,86,71,51,30.03,29.78,8,1,8,0.00
2014-10-18,64.1,51.5,45.5,50.0,44.8,41.0,86,78,58,30.16,30.03,8,1,8,0.00
2014-10-19,67.9,53.1,41.8,55.0,46.3,37.5,88,78,63,30.18,30.02,5,0,5,0.00
2014-10-20,75.8,64.4,51.8,60.9,55.5,47.0,86,74,56,30.04,29.97,6,1,6,0.00
2014-10-21,76.1,64.3,46.8,55.4,49.1,42.8,88,60,40,30.11,30.03,4,0,4,0.00
2014-10-22,72.0,57.6,49.3,55.3,48.0,43.7,82,71,53,30.22,30.09,5,1,5,0.00
2014-10-23,54.7,54.3,53.8,50.6,50.2,49.7,86,86,86,30.10,30.09,0,0,0,0.00
2014-10-24,76.1,61.1,47.9,63.7,54.9,44.6,90,81,63,30.10,30.00,8,1,8,0.00
2014-10-25,85.7,68.2,57.6,68.6,60.3,53.7,89,77,54,30.07,29.98,5,1,5,0.01
2014-10-26,85.7,69.8,57.4,67.3,59.7,53.7,90,73,45,29.98,29.77,7,1,7,0.00
2014-10-27,78.5,69.9,64.3,61.7,59.2,56.0,80,69,54,29.82,29.69,8,1,8,0.01
2014-10-28,67.0,58.0,47.3,60.9,47.0,40.0,88,69,45,30.13,29.82,8,1,8,0.28
2014-10-29,69.5,51.7,39.6,45.7,38.8,34.8,86,64,37,30.19,30.10,7,0,7,0.00
2014-10-30,70.0,52.6,41.6,51.6,41.8,34.8,83,68,45,30.10,29.95,9,1,9,0.03
2014-10-31,51.7,45.2,32.8,42.9,32.0,21.2,77,61,38,30.36,30.06,13,3,13,0.00
2014-11-1,56.9,39.3,25.9,28.6,23.3,18.8,76,55,27,30.41,30.27,5,0,5,0.00
2014-11-2,62.5,51.6,39.6,33.6,29.8,25.6,58,44,28,30.28,30.11,8,2,8,0.00
2014-11-3,68.9,57.7,44.1,55.8,45.5,31.5,73,64,53,30.17,30.03,8,2,8,0.00
2014-11-4,61.4,50.4,43.9,53.1,46.5,40.6,89,86,73,30.19,30.02,7,1,7,0.97
2014-11-5,59.4,47.2,41.2,47.5,41.0,37.0,90,80,57,30.18,30.08,4,0,4,0.01
2014-11-6,55.4,46.8,35.1,40.0,35.3,28.1,79,65,47,30.29,30.12,14,2,14,0.00
2014-11-7,63.4,45.9,30.2,38.1,32.4,25.9,85,62,32,30.26,29.88,5,1,5,0.00
2014-11-8,56.0,49.0,36.0,41.5,37.0,28.4,77,64,48,30.09,29.89,12,2,12,0.00
2014-11-9,55.1,37.0,31.9,40.9,30.5,26.6,84,77,57,30.06,29.95,5,0,5,0.00
2014-11-11,31.9,28.9,27.4,23.4,22.1,21.1,78,75,70,30.23,30.15,8,2,8,0.00
2014-11-12,31.9,26.6,22.3,21.6,16.6,10.0,78,66,54,30.41,30.22,12,4,12,0.00
2014-11-13,32.6,25.3,20.2,16.8,13.1,8.5,69,60,50,30.46,30.38,8,3,10,0.00
2014-11-14,41.6,26.7,16.2,19.0,13.5,9.6,80,59,35,30.41,30.25,4,0,7,0.00
2014-11-15,35.6,30.4,25.2,23.9,19.4,16.0,72,64,49,30.26,30.05,6,1,6,0.00
2014-11-16,33.3,28.7,21.2,26.9,22.8,14.2,86,78,70,30.10,30.00,8,2,8,0.00
2014-11-17,26.1,20.3,14.9,15.4,10.8,5.6,80,67,50,30.27,30.06,12,3,12,0.01
2014-11-18,42.7,25.2,10.8,22.3,13.4,3.8,75,62,43,30.32,30.03,8,1,8,0.02
2014-11-19,50.9,44.9,28.1,31.7,27.2,20.3,73,50,44,30.17,29.95,9,3,9,0.00
2014-11-20,52.9,35.9,23.0,27.9,22.5,17.3,81,60,37,30.19,30.07,5,1,5,0.00
2014-11-21,49.1,42.8,35.5,42.0,33.5,23.9,89,70,55,30.20,30.10,7,2,7,0.00
2014-11-22,56.3,51.2,45.4,50.9,47.5,42.0,89,87,81,30.11,29.72,6,2,6,0.08
2014-11-23,54.5,51.3,41.0,51.3,47.9,37.6,89,88,87,29.72,29.30,13,2,13,0.57
2014-11-24,49.3,41.0,33.3,37.5,30.7,24.0,89,68,49,30.06,29.45,13,4,13,0.03
2014-11-25,47.7,34.1,25.0,24.0,19.8,15.7,69,57,36,30.20,30.05,7,1,7,0.00
2014-11-26,45.9,37.5,30.4,36.6,28.0,20.7,86,69,53,30.28,29.90,10,3,10,0.01
2014-11-27,33.5,31.9,30.2,25.5,24.6,23.5,79,74,67,30.36,30.25,10,3,10,0.00
2014-11-28,64.6,46.3,31.7,40.7,33.2,24.0,79,62,40,30.25,29.82,10,2,10,0.00
2014-11-29,74.9,58.9,44.5,52.5,45.1,39.4,87,63,34,29.83,29.64,14,2,14,0.00
2014-11-30,71.5,54.8,31.9,56.3,45.7,23.2,81,72,54,30.24,29.70,15,5,15,0.00
2014-12-1,31.9,26.3,23.0,23.6,17.5,14.1,82,69,58,30.47,30.23,13,4,14,0.00
2014-12-2,34.2,30.2,27.4,29.4,24.3,17.3,87,79,64,30.35,30.08,6,1,6,0.01
2014-12-3,46.4,37.0,28.4,34.8,28.6,24.8,89,73,47,30.30,30.11,6,1,6,0.01
2014-12-4,45.4,41.2,36.9,42.7,37.9,31.9,90,88,71,30.18,30.06,6,1,6,0.05
2014-12-5,56.5,50.5,45.0,53.3,47.5,42.0,90,89,88,30.16,29.92,9,1,9,0.51
2014-12-6,45.2,41.0,37.8,42.2,38.0,34.8,90,89,88,30.46,30.16,9,3,9,0.00
2014-12-7,44.5,39.9,36.5,39.0,35.8,33.3,89,85,79,30.44,30.18,6,1,6,0.00
2014-12-8,55.3,44.6,37.8,44.6,38.7,32.5,88,80,65,30.21,30.15,8,2,8,0.00
2014-12-9,45.0,36.3,28.8,34.7,29.2,24.8,85,76,58,30.34,30.18,12,2,12,0.00
2014-12-10,42.3,33.9,27.7,34.7,29.3,23.8,87,83,73,30.28,30.13,6,2,6,0.00
2014-12-11,45.4,40.0,35.8,39.9,35.6,31.4,87,84,81,30.22,30.14,4,1,4,0.01
2014-12-12,54.2,45.6,39.4,46.8,40.3,35.0,85,82,75,30.28,30.18,5,1,5,0.00
2014-12-13,58.9,49.8,45.0,52.2,44.7,40.5,85,83,77,30.23,30.05,3,1,4,0.00
2014-12-14,58.7,53.0,49.0,51.5,46.9,43.8,83,80,74,30.05,29.77,9,2,9,0.41
2014-12-15,57.4,48.4,37.6,49.9,41.5,30.1,81,77,65,29.90,29.64,14,4,14,0.18
2014-12-16,37.6,32.2,25.6,30.9,26.2,20.8,83,78,75,30.26,29.90,10,3,12,0.00
2014-12-17,35.3,30.8,25.2,29.2,25.5,20.8,84,81,74,30.27,30.14,4,1,4,0.20
2014-12-18,38.2,35.6,32.8,32.9,30.3,27.5,82,81,80,30.18,30.09,4,0,4,0.23
2014-12-19,39.6,37.7,36.4,34.1,32.2,30.8,81,80,80,30.20,30.11,3,0,3,0.02
2014-12-20,42.8,39.6,36.7,36.9,33.9,31.1,81,80,79,30.18,30.12,5,1,5,0.02
2014-12-21,42.5,41.1,40.1,36.4,35.1,34.1,80,79,78,30.13,29.77,6,1,7,0.00
2014-12-22,47.7,44.1,39.6,40.2,37.3,32.9,79,77,74,29.77,29.45,9,1,9,0.44
2014-12-23,45.7,40.1,36.9,37.9,33.2,30.1,78,76,70,29.77,29.60,8,1,8,0.00
2014-12-24,37.8,36.0,30.8,31.6,29.7,25.0,79,78,76,29.88,29.71,9,3,9,0.01
2014-12-25,53.6,41.1,29.0,36.2,29.9,23.3,80,66,44,29.95,29.83,10,2,10,0.01
2014-12-26,55.6,47.6,40.0,45.5,38.9,32.7,77,72,66,30.00,29.88,7,2,7,0.02
2014-12-27,49.0,36.5,28.6,39.3,29.1,23.0,79,74,69,30.21,29.97,10,2,10,0.15
2014-12-28,41.4,29.7,24.8,29.7,23.0,19.3,79,76,62,30.19,30.08,5,1,5,0.02
2014-12-29,43.6,31.6,21.1,27.6,21.4,15.8,80,67,41,30.34,30.12,8,1,8,0.00
2014-12-30,32.8,28.3,22.5,24.0,20.2,10.7,77,72,60,30.58,30.34,10,3,10,0.00
2014-12-31,27.0,22.5,16.0,17.1,11.9,7.7,74,64,50,30.57,30.30,7,2,7,0.00
2015-1-1,34.6,28.7,20.9,27.2,21.7,14.4,77,75,70,30.32,30.14,5,1,6,0.05
2015-1-2,37.8,35.3,32.8,30.3,27.8,25.7,76,74,72,30.21,29.92,5,1,5,0.17